Batesville, AR

1:35 PM CDT on October 21, 2019 (GMT -0500)
Batesville Regional

Weather History for KBVX - September, 2019

Change the Weather History Date:

Monday, September 16, 2019

  Actual Average Record
Temperature  
Mean Temperature 81 °F -  
Max Temperature 97 °F 83 °F 103 °F (1980)
Min Temperature 66 °F 60 °F 37 °F (1961)
Cooling Degree Days 16    
Growing Degree Days 31 (Base 50)    
Moisture  
Dew Point 67 °F    
Average Humidity 68    
Maximum Humidity 97    
Minimum Humidity 36    
Precipitation  
Precipitation 0.00 in - - ()
Sea Level Pressure  
Sea Level Pressure 30.07 in    
Wind  
Wind Speed 2 mph ()    
Max Wind Speed 7 mph    
Max Gust Speed -    
Visibility 8.9 miles    
Events      
Averages and records for this station are not official NWS values.
T = Trace of Precipitation, MM = Missing Value Source: Averaged Metar Reports

Daily Weather History Graph

Daily Weather History Graph

Search for Another Location

Airport or City:

Astronomy

Sep. 16, 2019 Rise Set
Actual Time 6:49 AM CDT 7:12 PM CDT
Civil Twilight 6:24 AM CDT 7:38 PM CDT
Nautical Twilight 5:54 AM CDT 8:08 PM CDT
Astronomical Twilight 5:23 AM CDT 8:38 PM CDT
Moon 8:51 PM CDT (9/16) 8:54 AM CDT (9/16)
Length of Visible Light 13h 13m
Length of Day
12h 22m
Waning Gibbous, 94% of the Moon is Illuminated
Sep 16
Waning Gibbous
Sep 21
Last Quarter
Sep 28
New
Oct 5
First Quarter
Oct 13
Full

Hourly Weather History & Observations

Time (CDT) Temp. Heat Index Dew Point Humidity Pressure Visibility Wind Dir Wind Speed Gust Speed Precip Events Conditions
12:56 AM 73.0 °F - 69.1 °F 87% 30.08 in 10.0 mi Calm Calm - N/A   Clear
1:56 AM 71.1 °F - 68.0 °F 90% 30.08 in 9.0 mi NNW 3.5 mph - N/A   Clear
2:56 AM 70.0 °F - 68.0 °F 93% 30.08 in 8.0 mi WNW 3.5 mph - N/A   Clear
3:56 AM 70.0 °F - 68.0 °F 93% 30.08 in 8.0 mi Calm Calm - N/A   Clear
4:56 AM 69.1 °F - 66.9 °F 93% 30.09 in 7.0 mi Calm Calm - N/A   Clear
5:56 AM 68.0 °F - 66.9 °F 96% 30.10 in 5.0 mi NNW 3.5 mph - N/A   Clear
6:56 AM 66.9 °F - 66.0 °F 97% 30.11 in 3.0 mi Calm Calm - N/A   Clear
7:56 AM 70.0 °F - 68.0 °F 93% 30.13 in 5.0 mi Calm Calm - N/A   Clear
8:56 AM 75.0 °F - 70.0 °F 84% 30.13 in 10.0 mi Calm Calm - N/A   Clear
9:56 AM 82.0 °F 86.7 °F 72.0 °F 71% 30.14 in 10.0 mi Variable 3.5 mph - N/A   Clear
10:56 AM 88.0 °F 94.7 °F 72.0 °F 59% 30.12 in 10.0 mi Variable 3.5 mph - N/A   Clear
11:56 AM 91.9 °F 95.9 °F 68.0 °F 45% 30.11 in 10.0 mi ENE 4.6 mph - N/A   Clear
12:56 PM 93.9 °F 97.5 °F 66.9 °F 41% 30.09 in 10.0 mi Variable 3.5 mph - N/A   Clear
1:56 PM 95.0 °F 97.9 °F 66.0 °F 38% 30.07 in 9.0 mi NNE 4.6 mph - N/A   Clear
2:56 PM 96.1 °F 99.3 °F 66.0 °F 37% 30.04 in 10.0 mi Calm Calm - N/A   Clear
3:56 PM 96.1 °F 98.8 °F 64.9 °F 36% 30.03 in 10.0 mi Variable 6.9 mph - N/A   Partly Cloudy
4:56 PM 95.0 °F 97.0 °F 64.0 °F 36% 30.02 in 10.0 mi ESE 6.9 mph - N/A   Clear
5:56 PM 93.0 °F 95.0 °F 64.9 °F 39% 30.02 in 10.0 mi SSE 5.8 mph - N/A   Clear
6:56 PM 89.1 °F 91.0 °F 64.9 °F 45% 30.01 in 10.0 mi SSE 3.5 mph - N/A   Clear
7:56 PM 82.9 °F 85.0 °F 66.0 °F 56% 30.02 in 10.0 mi Calm Calm - N/A   Clear
8:56 PM 77.0 °F - 66.9 °F 71% 30.02 in 10.0 mi NNW 3.5 mph - N/A   Clear
10:56 PM 73.9 °F - 68.0 °F 82% 30.04 in 10.0 mi NW 4.6 mph - N/A   Clear
11:56 PM 73.9 °F - 66.9 °F 79% 30.04 in 10.0 mi Calm Calm - N/A   Clear